Weather History for Tucumcari, NM

Change the Weather History Date:

Saturday, February 2, 2013

  Actual Average Record
Temperature  
Mean Temperature 42 °F -  
Max Temperature 57 °F 55 °F 80 °F (1934)
Min Temperature 28 °F 25 °F -9 °F (2011)
Degree Days  
Heating Degree Days 22    
Moisture  
Dew Point 19 °F    
Average Humidity 40    
Maximum Humidity 64    
Minimum Humidity 22    
Precipitation  
Precipitation 0.00 in - - ()
Sea Level Pressure  
Sea Level Pressure 30.29 in    
Wind  
Wind Speed 5 mph (SSW)    
Max Wind Speed 12 mph    
Max Gust Speed -    
Visibility 10 miles    
Events      
Averages and records for this station are not official NWS values.
T = Trace of Precipitation, MM = Missing Value Source: NWS Daily Summary

Daily Weather History Graph

Daily Weather History Graph

Search for Another Location

Airport:

Trip Planner

Search our weather history database for the weather conditions in past years. The results will help you decide how hot, cold, wet, or windy it might be!

Date:

Astronomy

Feb. 02, 2013 Rise Set
Actual Time 6:52 AM MST 5:24 PM MST
Civil Twilight 6:25 AM MST 5:50 PM MST
Nautical Twilight 5:55 AM MST 6:21 PM MST
Astronomical Twilight 5:25 AM MST 6:50 PM MST
Moon No Moon Rise 10:21 AM MST (2/2)
Length of Visible Light 11h 24m
Length of Day
10h 31m
Waning Gibbous, 59% of the Moon is Illuminated
Feb 2
Waning Gibbous
Feb 3
Last Quarter
Feb 10
New
Feb 17
First Quarter
Feb 25
Full

Hourly Weather History & Observations

Time (MST) Temp. Windchill Dew Point Humidity Pressure Visibility Wind Dir Wind Speed Gust Speed Precip Events Conditions
12:53 AM 36.0 °F 28.0 °F 17.1 °F 46% 30.14 in 10.0 mi NNW 11.5 mph - N/A   Clear
2:53 AM 37.9 °F 34.4 °F 17.1 °F 43% 30.16 in 10.0 mi NNW 4.6 mph - N/A   Clear
3:53 AM 35.1 °F 32.2 °F 17.1 °F 48% 30.19 in 10.0 mi East 3.5 mph - N/A   Clear
5:53 AM 30.9 °F - 17.1 °F 57% 30.30 in 10.0 mi Calm Calm - N/A   Clear
6:53 AM 28.9 °F 23.9 °F 18.0 °F 64% 30.33 in 10.0 mi NNW 4.6 mph - N/A   Clear
7:53 AM 34.0 °F 31.0 °F 21.0 °F 59% 30.35 in 10.0 mi North 3.5 mph - N/A   Clear
8:53 AM 42.1 °F - 24.1 °F 49% 30.35 in 10.0 mi Calm Calm - N/A   Clear
9:53 AM 45.0 °F - 25.0 °F 46% 30.37 in 10.0 mi Calm Calm - N/A   Clear
10:53 AM 46.9 °F - 24.1 °F 41% 30.38 in 10.0 mi Calm Calm - N/A   Clear
11:53 AM 51.1 °F - 21.0 °F 31% 30.34 in 10.0 mi East 5.8 mph - N/A   Clear
12:53 PM 54.0 °F - 18.0 °F 24% 30.32 in 10.0 mi SE 9.2 mph - N/A   Clear
1:53 PM 55.0 °F - 17.1 °F 23% 30.29 in 10.0 mi South 3.5 mph - N/A   Clear
2:53 PM 57.0 °F - 18.0 °F 22% 30.26 in 10.0 mi South 4.6 mph - N/A   Clear
3:53 PM 57.0 °F - 18.0 °F 22% 30.26 in 10.0 mi SSW 4.6 mph - N/A   Clear
4:53 PM 55.0 °F - 18.0 °F 23% 30.25 in 10.0 mi South 3.5 mph - N/A   Clear
5:53 PM 48.9 °F - 17.1 °F 28% 30.28 in 10.0 mi Calm Calm - N/A   Clear
6:53 PM 43.0 °F 38.2 °F 19.0 °F 38% 30.31 in 10.0 mi SW 8.1 mph - N/A   Clear
7:53 PM 43.0 °F 36.8 °F 18.0 °F 37% 30.30 in 10.0 mi SW 11.5 mph - N/A   Clear
8:53 PM 39.0 °F 36.8 °F 17.1 °F 41% 30.30 in 10.0 mi SW 3.5 mph - N/A   Clear
9:53 PM 37.9 °F 35.5 °F 18.0 °F 45% 30.30 in 10.0 mi WSW 3.5 mph - N/A   Clear
10:53 PM 37.0 °F 34.5 °F 17.1 °F 44% 30.29 in 10.0 mi South 3.5 mph - N/A   Clear
11:53 PM 34.0 °F 28.8 °F 17.1 °F 50% 30.27 in 10.0 mi WSW 5.8 mph - N/A   Clear